Mobile, AL

1:54 AM CDT on May 25, 2017 (GMT -0500)
Mobile Regional

Weather History for KMOB - April, 2014

Change the Weather History Date:

Tuesday, April 15, 2014

  Actual Average Record
Temperature  
Mean Temperature 54 °F 66 °F  
Max Temperature 64 °F 77 °F 89 °F (2001)
Min Temperature 43 °F 55 °F 36 °F (2008)
Degree Days  
Heating Degree Days 11 2  
Month to date heating degree days 39 44  
Since 1 July heating degree days 2018 1675  
Cooling Degree Days 0 3  
Month to date cooling degree days 30 38  
Year to date cooling degree days 43 93  
Growing Degree Days 2 (Base 50)    
Moisture  
Dew Point 46 °F    
Average Humidity 72    
Maximum Humidity 100    
Minimum Humidity 44    
Precipitation  
Precipitation 0.56 in 0.16 in 3.81 in (1934)
Month to date precipitation 5.40 2.53  
Year to date precipitation 19.02 19.44  
Sea Level Pressure  
Sea Level Pressure 29.98 in    
Wind  
Wind Speed 15 mph (NNW)    
Max Wind Speed 29 mph    
Max Gust Speed 38 mph    
Visibility 7 miles    
Events Rain    
T = Trace of Precipitation, MM = Missing Value Source: NWS Daily Summary

Daily Weather History Graph

Daily Weather History Graph

Search for Another Location

Airport or City:

Trip Planner

Search our weather history database for the weather conditions in past years. The results will help you decide how hot, cold, wet, or windy it might be!

Date:

Astronomy

Apr. 15, 2014 Rise Set
Actual Time 6:25 AM CDT 7:20 PM CDT
Civil Twilight 6:00 AM CDT 7:45 PM CDT
Nautical Twilight 5:31 AM CDT 8:14 PM CDT
Astronomical Twilight 5:01 AM CDT 8:45 PM CDT
Moon 7:58 PM CDT (4/15) 6:34 AM CDT (4/15)
Length of Visible Light 13h 44m
Length of Day
12h 55m
Full, 100% of the Moon is Illuminated
Apr 15
Full
Apr 22
Last Quarter
Apr 29
New
May 6
First Quarter
May 14
Full

Hourly Weather History & Observations

Time (CDT) Temp. Windchill Dew Point Humidity Pressure Visibility Wind Dir Wind Speed Gust Speed Precip Events Conditions
12:56 AM 64.0 °F - 64.0 °F 100% 29.79 in 5.0 mi NE 3.5 mph - 0.12 in Rain Rain
1:45 AM 63.0 °F - 63.0 °F 100% 29.82 in 9.0 mi SW 5.8 mph - 0.04 in Rain Light Rain
1:56 AM 63.0 °F - 63.0 °F 100% 29.82 in 5.0 mi Calm Calm - 0.06 in Rain Rain
2:26 AM 63.0 °F - 63.0 °F 100% 29.84 in 3.0 mi West 5.8 mph - 0.09 in Rain Heavy Rain
2:49 AM 62.1 °F - 62.1 °F 100% 29.81 in 7.0 mi NW 12.7 mph 21.9 mph 0.21 in Rain Light Rain
2:56 AM 59.0 °F - 59.0 °F 100% 29.83 in 10.0 mi NNW 18.4 mph 28.8 mph 0.22 in Rain Light Rain
3:18 AM 53.1 °F - 53.1 °F 100% 29.86 in 4.0 mi NW 15.0 mph 31.1 mph 0.07 in Rain Heavy Rain
3:32 AM 52.0 °F - 52.0 °F 100% 29.84 in 4.0 mi NW 16.1 mph 23.0 mph 0.15 in Rain Heavy Rain
3:49 AM 51.1 °F - 51.1 °F 100% 29.86 in 7.0 mi NW 16.1 mph 25.3 mph 0.21 in Rain Light Rain
3:56 AM 51.1 °F - 51.1 °F 100% 29.86 in 8.0 mi NW 12.7 mph 24.2 mph 0.22 in Rain Light Rain
4:41 AM 48.9 °F - 48.9 °F 100% 29.87 in 10.0 mi NW 13.8 mph 24.2 mph 0.06 in   Overcast
4:56 AM 48.9 °F - - N/A% 29.88 in 10.0 mi NW 16.1 mph 28.8 mph 0.06 in   Overcast
5:12 AM 48.9 °F - - N/A% 29.90 in 10.0 mi NW 13.8 mph 24.2 mph N/A   Overcast
5:56 AM 48.0 °F - 48.0 °F 100% 29.92 in 7.0 mi NW 17.3 mph 27.6 mph 0.00 in Rain Light Rain
6:08 AM 46.9 °F - 46.9 °F 100% 29.92 in 4.0 mi NNW 20.7 mph 27.6 mph 0.00 in Rain Light Rain
6:56 AM 46.9 °F - 46.9 °F 100% 29.94 in 4.0 mi NW 12.7 mph 20.7 mph 0.00 in   Light Drizzle
7:29 AM 46.0 °F 39.9 °F 46.0 °F 100% 29.97 in 4.0 mi NW 13.8 mph 25.3 mph 0.00 in   Light Drizzle
7:56 AM 46.0 °F 39.3 °F 45.0 °F 96% 29.98 in 4.0 mi NNW 16.1 mph 31.1 mph 0.00 in   Overcast
8:56 AM 46.9 °F - 43.0 °F 86% 30.01 in 4.0 mi NNW 20.7 mph 33.4 mph N/A   Overcast
9:13 AM 46.0 °F 37.8 °F 44.1 °F 93% 30.02 in 5.0 mi NNW 23.0 mph 32.2 mph N/A   Overcast
9:28 AM 46.9 °F - 44.1 °F 90% 30.04 in 5.0 mi NNW 23.0 mph 38.0 mph N/A   Overcast
9:56 AM 46.9 °F - 44.1 °F 90% 30.04 in 5.0 mi NNW 16.1 mph 26.5 mph N/A   Overcast
10:56 AM 46.9 °F - 39.9 °F 77% 30.07 in 7.0 mi North 24.2 mph 33.4 mph 0.00 in   Overcast
11:56 AM 46.9 °F - 39.0 °F 74% 30.09 in 7.0 mi NW 19.6 mph 31.1 mph N/A   Overcast
12:56 PM 51.1 °F - 39.9 °F 66% 30.08 in 10.0 mi North 24.2 mph 31.1 mph N/A   Mostly Cloudy
1:56 PM 53.1 °F - 37.9 °F 57% 30.07 in 10.0 mi NNW 21.9 mph 32.2 mph N/A   Mostly Cloudy
2:56 PM 53.1 °F - 37.9 °F 57% 30.05 in 10.0 mi North 20.7 mph 26.5 mph N/A   Scattered Clouds
3:56 PM 53.1 °F - 37.9 °F 57% 30.03 in 10.0 mi NNW 21.9 mph - N/A   Scattered Clouds
4:56 PM 57.9 °F - 37.0 °F 46% 30.02 in 10.0 mi North 16.1 mph 26.5 mph N/A   Mostly Cloudy
5:56 PM 59.0 °F - 37.0 °F 44% 30.07 in 10.0 mi North 13.8 mph - N/A   Mostly Cloudy
6:56 PM 57.0 °F - 37.0 °F 47% 30.09 in 10.0 mi North 6.9 mph - N/A   Mostly Cloudy
7:56 PM 54.0 °F - 37.0 °F 53% 30.12 in 10.0 mi North 6.9 mph - N/A   Mostly Cloudy
8:56 PM 50.0 °F - 38.5 °F 65% 30.15 in 10.0 mi North 8.1 mph - N/A   Scattered Clouds
9:56 PM 48.0 °F - 37.9 °F 68% 30.18 in 10.0 mi North 6.9 mph - N/A   Partly Cloudy
10:56 PM 48.0 °F - 37.0 °F 66% 30.18 in 10.0 mi North 9.2 mph - N/A   Partly Cloudy
11:56 PM 43.0 °F 38.8 °F - N/A% 30.19 in 10.0 mi North 6.9 mph - N/A   Clear